Tracking 30685 objects as of 17-Jun-2025
HD Live streaming from Space Station
objects crossing your sky now

STARLINK-6283

Track STARLINK-6283 now!
10-day predictions
STARLINK-6283 is classified as:


NORAD ID: 56406
Int'l Code: 2023-061AJ
Perigee: 565.3 km
Apogee: 567.2 km
Inclination: 43.0 °
Period: 95.8 minutes
Semi major axis: 6937 km
RCS: Unknown
Launch date: May 4, 2023
Source: United States (US)
Launch site: AIR FORCE EASTERN TEST RANGE (AFETR)
Your satellite tracking list
Your tracking list is empty




NASA's NSSDC Master Catalog

Two Line Element Set (TLE):
1 56406U 23061AJ  25167.77040571 -.00000341  00000-0 -10141-4 0  9996
2 56406  43.0023 189.3834 0001395 288.6160  71.4530 15.02534098116904
Source of the keplerian elements: AFSPC